• In Deutschland
  • Länderverzeichnis
  • Für 7 Tage
  • Wassertemperatur
  • Satellitenkarten
  • Wetterkarte
  • Widgets
  • user-avatar
    Anmelden

    Stündliche Wetter Deggendorf

    Heute, 25 September, Dienstag

    Zeit Temperatur Niederschläge Wind Luftdruck Luftfeuchtigkeit
    00:00 +6°C° 0 mm 2 m/S 745 mmHg 85%
    01:00 +5°C° 0 mm 2 m/S 745 mmHg 89%
    02:00 +5°C° 0 mm 2 m/S 745 mmHg 90%
    03:00 +4°C° 0 mm 2 m/S 745 mmHg 92%
    04:00 +4°C° 0 mm 2 m/S 745 mmHg 94%
    05:00 +4°C° 0 mm 2 m/S 746 mmHg 94%
    06:00 +5°C° 0 mm 1 m/S 746 mmHg 93%
    07:00 +6°C° 0 mm 1 m/S 747 mmHg 90%
    08:00 +7°C° 0 mm 1 m/S 747 mmHg 79%
    09:00 +8°C° 0 mm 2 m/S 747 mmHg 68%
    10:00 +10°C° 0 mm 2 m/S 747 mmHg 57%
    11:00 +12°C° 0 mm 2 m/S 747 mmHg 53%
    12:00 +13°C° 0 mm 2 m/S 747 mmHg 48%
    13:00 +14°C° 0 mm 2 m/S 747 mmHg 44%
    14:00 +14°C° 0 mm 2 m/S 747 mmHg 44%
    15:00 +13°C° 0 mm 2 m/S 746 mmHg 45%
    16:00 +13°C° 0 mm 2 m/S 746 mmHg 46%
    17:00 +11°C° 0 mm 1 m/S 747 mmHg 53%
    18:00 +9°C° 0 mm 1 m/S 747 mmHg 60%
    19:00 +7°C° 0 mm 1 m/S 747 mmHg 67%
    20:00 +7°C° 0 mm 1 m/S 748 mmHg 68%
    21:00 +6°C° 0 mm 1 m/S 748 mmHg 70%
    22:00 +6°C° 0 mm 1 m/S 748 mmHg 71%
    23:00 +5°C° 0 mm 1 m/S 748 mmHg 72%

    Morgen, 26 September, Mittwoch

    Zeit Temperatur Niederschläge Wind Luftdruck Luftfeuchtigkeit
    00:00 +5°C° 0 mm 1 m/S 748 mmHg 74%
    01:00 +5°C° 0 mm 1 m/S 748 mmHg 75%
    02:00 +4°C° 0 mm 1 m/S 748 mmHg 75%
    03:00 +4°C° 0 mm 1 m/S 747 mmHg 76%
    04:00 +3°C° 0 mm 2 m/S 747 mmHg 76%
    05:00 +3°C° 0 mm 2 m/S 747 mmHg 74%
    06:00 +4°C° 0 mm 2 m/S 747 mmHg 72%
    07:00 +5°C° 0 mm 1 m/S 747 mmHg 70%
    08:00 +7°C° 0 mm 2 m/S 747 mmHg 62%
    09:00 +9°C° 0 mm 2 m/S 746 mmHg 54%
    10:00 +13°C° 0 mm 2 m/S 746 mmHg 46%
    11:00 +14°C° 0 mm 2 m/S 746 mmHg 43%
    12:00 +16°C° 0 mm 1 m/S 745 mmHg 40%
    13:00 +18°C° 0 mm 1 m/S 745 mmHg 37%
    14:00 +18°C° 0 mm 1 m/S 745 mmHg 40%
    15:00 +18°C° 0 mm 1 m/S 744 mmHg 43%
    16:00 +18°C° 0 mm 1 m/S 744 mmHg 45%
    17:00 +15°C° 0 mm 1 m/S 744 mmHg 53%
    18:00 +11°C° 0 mm 0 m/S 744 mmHg 60%
    19:00 +9°C° 0 mm 0 m/S 744 mmHg 67%
    20:00 +8°C° 0 mm 0 m/S 744 mmHg 68%
    21:00 +8°C° 0 mm 0 m/S 745 mmHg 70%
    22:00 +9°C° 0 mm 1 m/S 745 mmHg 71%
    23:00 +8°C° 0 mm 1 m/S 745 mmHg 72%

    übermorgen, 27 September, Donnerstag

    Zeit Temperatur Niederschläge Wind Luftdruck Luftfeuchtigkeit
    00:00 +8°C° 0 mm 1 m/S 745 mmHg 72%
    01:00 +8°C° 0 mm 1 m/S 745 mmHg 73%
    02:00 +7°C° 0 mm 1 m/S 745 mmHg 74%
    03:00 +7°C° 0 mm 1 m/S 744 mmHg 74%
    04:00 +7°C° 0 mm 1 m/S 744 mmHg 74%
    05:00 +7°C° 0 mm 1 m/S 744 mmHg 74%
    06:00 +8°C° 0 mm 1 m/S 744 mmHg 74%
    07:00 +8°C° 0 mm 1 m/S 744 mmHg 73%
    08:00 +11°C° 0 mm 1 m/S 744 mmHg 66%
    09:00 +14°C° 0 mm 1 m/S 744 mmHg 59%
    10:00 +18°C° 0 mm 1 m/S 744 mmHg 52%
    11:00 +19°C° 0 mm 1 m/S 743 mmHg 50%
    12:00 +21°C° 0 mm 1 m/S 743 mmHg 47%
    13:00 +22°C° 0 mm 1 m/S 743 mmHg 44%
    14:00 +22°C° 0 mm 1 m/S 742 mmHg 46%
    15:00 +21°C° 0 mm 1 m/S 741 mmHg 49%
    16:00 +21°C° 0 mm 1 m/S 741 mmHg 52%
    17:00 +19°C° 0 mm 1 m/S 741 mmHg 59%
    18:00 +15°C° 0 mm 1 m/S 740 mmHg 67%
    19:00 +13°C° 0 mm 1 m/S 740 mmHg 75%
    20:00 +12°C° 0 mm 1 m/S 740 mmHg 76%
    21:00 +12°C° 0 mm 1 m/S 740 mmHg 77%
    22:00 +11°C° 0 mm 1 m/S 739 mmHg 78%
    23:00 +11°C° 0 mm 1 m/S 739 mmHg 78%

    28 September, Freitag

    Zeit Temperatur Niederschläge Wind Luftdruck Luftfeuchtigkeit
    00:00 +10°C° 0 mm 1 m/S 738 mmHg 79%
    01:00 +10°C° 0 mm 1 m/S 738 mmHg 79%
    02:00 +10°C° 0 mm 1 m/S 738 mmHg 80%
    03:00 +9°C° 0 mm 1 m/S 737 mmHg 80%
    04:00 +9°C° 0 mm 1 m/S 737 mmHg 81%
    05:00 +9°C° 0 mm 1 m/S 737 mmHg 81%
    06:00 +9°C° 0 mm 1 m/S 737 mmHg 82%
    07:00 +10°C° 0 mm 1 m/S 737 mmHg 83%
    08:00 +12°C° 0 mm 1 m/S 737 mmHg 76%
    09:00 +15°C° 0 mm 1 m/S 737 mmHg 69%
    10:00 +18°C° 0 mm 1 m/S 737 mmHg 63%
    11:00 +19°C° 0 mm 1 m/S 736 mmHg 60%
    12:00 +20°C° 0 mm 2 m/S 736 mmHg 57%
    13:00 +21°C° 0 mm 2 m/S 736 mmHg 54%
    14:00 +21°C° 0 mm 2 m/S 735 mmHg 56%
    15:00 +20°C° 0 mm 2 m/S 735 mmHg 57%
    16:00 +20°C° 0 mm 2 m/S 735 mmHg 59%
    17:00 +19°C° 0 mm 1 m/S 735 mmHg 66%
    18:00 +16°C° 0 mm 1 m/S 735 mmHg 73%
    19:00 +14°C° 0 mm 1 m/S 736 mmHg 80%
    20:00 +13°C° 0 mm 1 m/S 736 mmHg 83%
    21:00 +12°C° 0 mm 2 m/S 736 mmHg 85%
    22:00 +10°C° 0 mm 2 m/S 737 mmHg 88%
    23:00 +10°C° 0 mm 2 m/S 737 mmHg 90%

    29 September, Samstag

    Zeit Temperatur Niederschläge Wind Luftdruck Luftfeuchtigkeit
    00:00 +10°C° 0 mm 2 m/S 737 mmHg 92%
    01:00 +10°C° 0 mm 1 m/S 737 mmHg 94%
    02:00 +10°C° 0 mm 1 m/S 737 mmHg 94%
    03:00 +9°C° 0 mm 1 m/S 737 mmHg 95%
    04:00 +9°C° 0 mm 1 m/S 738 mmHg 95%
    05:00 +9°C° 0 mm 1 m/S 738 mmHg 94%
    06:00 +9°C° 0 mm 1 m/S 738 mmHg 92%
    07:00 +8°C° 0 mm 2 m/S 739 mmHg 91%
    08:00 +10°C° 0 mm 2 m/S 739 mmHg 82%
    09:00 +12°C° 0 mm 2 m/S 739 mmHg 74%
    10:00 +13°C° 0 mm 3 m/S 739 mmHg 66%
    11:00 +14°C° 0 mm 3 m/S 739 mmHg 61%
    12:00 +16°C° 0 mm 3 m/S 739 mmHg 57%
    13:00 +16°C° 0 mm 3 m/S 738 mmHg 53%
    14:00 +16°C° 0 mm 3 m/S 738 mmHg 53%
    15:00 +16°C° 0 mm 3 m/S 738 mmHg 54%
    16:00 +16°C° 0 mm 3 m/S 738 mmHg 55%
    17:00 +13°C° 0 mm 3 m/S 738 mmHg 60%
    18:00 +11°C° 0 mm 3 m/S 738 mmHg 66%
    19:00 +9°C° 0 mm 3 m/S 738 mmHg 71%
    20:00 +8°C° 0 mm 3 m/S 738 mmHg 71%
    21:00 +8°C° 0 mm 3 m/S 738 mmHg 71%
    22:00 +7°C° 0 mm 3 m/S 738 mmHg 71%
    23:00 +7°C° 0 mm 3 m/S 738 mmHg 72%

    30 September, Sonntag

    Zeit Temperatur Niederschläge Wind Luftdruck Luftfeuchtigkeit
    00:00 +5°C° 0 mm 3 m/S 737 mmHg 74%
    01:00 +5°C° 0 mm 3 m/S 737 mmHg 75%
    02:00 +5°C° 0 mm 3 m/S 737 mmHg 77%
    03:00 +5°C° 0 mm 2 m/S 736 mmHg 78%
    04:00 +5°C° 0 mm 2 m/S 736 mmHg 80%
    05:00 +5°C° 0 mm 2 m/S 736 mmHg 80%
    06:00 +5°C° 0 mm 2 m/S 736 mmHg 79%
    07:00 +5°C° 0 mm 2 m/S 735 mmHg 79%
    08:00 +8°C° 0 mm 2 m/S 735 mmHg 70%
    09:00 +10°C° 0 mm 2 m/S 735 mmHg 61%
    10:00 +14°C° 0 mm 2 m/S 735 mmHg 52%
    11:00 +15°C° 0 mm 2 m/S 734 mmHg 49%
    12:00 +17°C° 0 mm 2 m/S 734 mmHg 47%
    13:00 +18°C° 0 mm 2 m/S 733 mmHg 45%
    14:00 +18°C° 0 mm 2 m/S 733 mmHg 48%
    15:00 +19°C° 0 mm 1 m/S 733 mmHg 50%
    16:00 +19°C° 0 mm 1 m/S 732 mmHg 53%
    17:00 +15°C° 0 mm 1 m/S 732 mmHg 62%
    18:00 +13°C° 0 mm 1 m/S 732 mmHg 70%
    19:00 +9°C° 0 mm 0 m/S 732 mmHg 79%
    20:00 +9°C° 0 mm 0 m/S 732 mmHg 80%
    21:00 +8°C° 0 mm 0 m/S 732 mmHg 82%
    22:00 +8°C° 0 mm 0 m/S 732 mmHg 83%
    23:00 +8°C° 0 mm 0 m/S 731 mmHg 84%
    Mehr zeigen